This demonstration page uses our WeatherBlox Daily Observations layout. Learn more.

Left ArrowRight Arrow

36.19886, -115.1175

Hourly Observations for January 5, 2021

Temp ( °F °C ) Dew Point ( °F °C ) Humidity (%) Winds ( mph kmh ) Pressure ( in mb ) Visibility ( mi km ) Precip ( " mm )
12:53 am 00:53 Clear 46 7.8 22 -5.6 38 38 NNW 10 17 30.08 1019 10 16.0934 0 0
1:53 am 01:53 Clear 47 8.3 22 -5.6 37 37 NNW 13 20 30.1 1019 10 16.0934 0 0
2:53 am 02:53 Clear 47 8.3 22 -5.6 37 37 N 14 22 30.1 1019 10 16.0934 0 0
3:53 am 03:53 Clear 45 7.2 22 -5.6 40 40 W 8 13 30.1 1019 10 16.0934 0 0
4:53 am 04:53 Clear 47 8.3 23 -5 39 39 WSW 12 19 30.12 1020 10 16.0934 0 0
5:53 am 05:53 Clear 44 6.7 23 -5 43 43 WNW 8 13 30.16 1022 10 16.0934 0 0
6:53 am 06:53 Sunny 42 5.6 22 -5.6 45 45 WNW 12 19 30.2 1023 10 16.0934 0 0
7:53 am 07:53 Sunny 47 8.3 24 -4.4 41 41 NW 7 11 30.24 1024 10 16.0934 0 0
8:53 am 08:53 Sunny 50 10 25 -3.9 38 38 Calm 30.25 1024 10 16.0934 0 0
9:53 am 09:53 Sunny 53 11.7 25 -3.9 34 34 Calm 30.25 1025 10 16.0934 0 0
10:53 am 10:53 Sunny 58 14.4 24 -4.4 27 27 Calm 30.22 1023 10 16.0934 0 0
11:53 am 11:53 Sunny 61 16.1 23 -5 23 23 ESE 6 9 30.19 1022 10 16.0934 0 0
12:53 pm 12:53 Sunny 62 16.7 23 -5 22 22 ESE 10 17 30.16 1022 10 16.0934 0 0
1:53 pm 13:53 Sunny 63 17.2 22 -5.6 21 21 ESE 12 19 30.16 1021 10 16.0934 0 0
2:53 pm 14:53 Sunny 63 17.2 21 -6.1 20 20 E 7 11 30.16 1022 10 16.0934 0 0
3:53 pm 15:53 Sunny 63 17.2 19 -7.2 18 18 SE 7 11 30.17 1022 10 16.0934 0 0
4:53 pm 16:53 Clear 60 15.6 19 -7.2 20 20 Calm 30.19 1022 10 16.0934 0 0
5:53 pm 17:53 Clear 57 13.9 18 -7.8 22 22 N 8 13 30.23 1024 10 16.0934 0 0
6:53 pm 18:53 Clear 55 12.8 17 -8.3 22 22 NW 6 9 30.25 1025 10 16.0934 0 0
7:53 pm 19:53 Clear 56 13.3 17 -8.3 22 22 Calm 30.25 1024 10 16.0934 0 0
8:53 pm 20:53 Clear 50 10 18 -7.8 28 28 WNW 7 11 30.25 1024 10 16.0934 0 0
9:53 pm 21:53 Clear 48 8.9 19 -7.2 32 32 WNW 3 6 30.26 1025 10 16.0934 0 0
10:53 pm 22:53 Clear 45 7.2 18 -7.8 34 34 Calm 30.27 1025 10 16.0934 0 0
11:53 pm 23:53 Clear 45 7.2 18 -7.8 34 34 NW 6 9 30.26 1025 10 16.0934 0 0

Powered by AerisWeather